SL-16 DEB, 22611

Orbit data source: Space-Track

SL-16 DEB, 22611 is space debris in LEO originally from a launch on Fri, 26 Mar 1993 UTC launched from the Tyuratam Missile And Space Complex (TTMTR). Debris objects in space refer to the collection of defunct objects orbiting the Earth. Examples of debris include non-operational satellites, rocket bodies, and fragments generated from explosions, collisions, or faulty payload assembly.

Loading next visibility...
Identifier
22611, 1993-016V
Orbit
LEO
Country
Flag of CISCIS
Related business
Manufacturer
Unknown
Mission
Spacecraft
Bus & Motor
Unknown
Mass
Unknown
Launch date (UTC)
1993-03-26 (33 years ago)
Launch vehicle
Unknown
Launch site
Tyuratam Missile And Space Complex (TTMTR)
Object type
Payload
Rocket body
Debris
Shape & HBR
Unknown shape, 0.2 m
Radar Cross Section
Small (<0.1 m²)

Expand to show TLE details & history
Last TLE update: 14 hours ago

TLE from 14 hours ago
0 SL-16 DEB
1 22611U 93016V   25289.01700602  .00000366  00000-0  36214-3 0  9997
2 22611  70.9900 227.4971 0167787  60.4248  63.4903 13.78637787635782
Epoch: 2025-10-16T00:24Z
TLE epoch observation values (Epoch: 2025-10-16T00:24:29.320Z)
Latitude
50.30719°
Longitude
-7.79564°
Altitude
922.843 km
Speed
7.422 km/s
True Right ascension
01h 32m 26s
True Declination
50° 08' 31"
Sunlit
Object was in full shadow at epoch
Visualization orbit readout
Latitude
Unknown
Longitude
Unknown
Altitude
Unknown
Speed
Unknown
Apparent Right ascension
Unknown
Apparent Declination
Unknown
Sunlit
N/A
Visualization observer readout
Local Sidereal Time
08:58:15
Azimuth
Unknown
Elevation
Unknown
Doppler factor
Unknown
Orbital elements
Apogee altitude
1,089.92 km
Perigee altitude
843.447 km
Semi-major axis
7,344.82 km
Eccentricity
0.01678
Inclination
70.99°
RAAN
227.4971°
Arg. of periapsis
60.4248°
True anomaly
65.22683°
Mean anomaly
63.4903°
Eccentric anomaly
64.35696°
Mean motion
3.44803 °/min
Orbital period
104.41 mins
BSTAR
0.00036214
Loading maneuver chart data...
Computing Atmospheric mass density...
Loading historical data...
Loading historical data...
Loading historical data...
Loading historical data...
Loading historical data...
Loading historical data...
Loading historical data...

Documentation

Showing up to 5 results
|